TimeCDT,TemperatureF,Dew PointF,Humidity,Sea Level PressureIn,VisibilityMPH,Wind Direction,Wind SpeedMPH,Gust SpeedMPH,PrecipitationIn,Events,Conditions,WindDirDegrees,DateUTC
12:15 AM,6.8,1.4,79,29.73,1.8,NNW,26.5,33.4,0.36,Rain,Freezing Rain,330,2013-03-18 05:15:00
12:35 AM,6.8,1.4,79,29.74,1.8,NNW,24.2,-,0.90,Rain,Freezing Rain,330,2013-03-18 05:35:00
12:55 AM,6.8,1.4,79,29.75,2.5,NNW,25.3,29.9,1.37,Snow,Light Snow,330,2013-03-18 05:55:00
1:15 AM,6.8,1.4,79,29.76,3.0,NNW,26.5,34.5,0.01,Snow,Light Snow,330,2013-03-18 06:15:00
1:35 AM,6.8,1.4,79,29.77,4.0,NNW,24.2,29.9,0.03,Snow,Light Snow,330,2013-03-18 06:35:00
1:55 AM,6.8,1.4,79,29.77,1.2,NNW,28.8,36.8,0.10,Snow,Light Snow,330,2013-03-18 06:55:00
2:15 AM,5.0,1.4,85,29.79,1.2,NW,27.6,39.1,0.02,Snow,Light Snow,320,2013-03-18 07:15:00
2:35 AM,5.0,-0.4,78,29.80,1.8,NW,28.8,34.5,0.04,Snow,Light Snow,320,2013-03-18 07:35:00
2:55 AM,3.2,-0.4,85,29.80,-9999.0,NW,25.3,36.8,0.05,Snow,Heavy Snow,320,2013-03-18 07:55:00
3:15 AM,3.2,-0.4,85,29.81,1.8,NW,26.5,33.4,N/A,Rain,Freezing Rain,320,2013-03-18 08:15:00
3:35 AM,1.4,-0.4,92,29.82,1.5,NW,27.6,34.5,N/A,Rain,Freezing Rain,320,2013-03-18 08:35:00
3:55 AM,1.4,-2.2,85,29.82,1.8,NW,24.2,33.4,N/A,,Overcast,310,2013-03-18 08:55:00
4:15 AM,1.4,-2.2,85,29.84,1.8,NW,25.3,-,N/A,,Overcast,310,2013-03-18 09:15:00
4:35 AM,1.4,-2.2,85,29.84,1.5,NW,27.6,32.2,N/A,Rain,Freezing Rain,310,2013-03-18 09:35:00
4:55 AM,1.4,-2.2,85,29.84,2.0,NW,26.5,32.2,N/A,,Overcast,320,2013-03-18 09:55:00
5:15 AM,1.4,-2.2,85,29.85,1.5,NW,26.5,31.1,N/A,Rain,Freezing Rain,320,2013-03-18 10:15:00
5:35 AM,-0.4,-2.2,92,29.86,2.5,NW,24.2,31.1,N/A,,Overcast,310,2013-03-18 10:35:00
5:55 AM,-0.4,-2.2,92,29.86,4.0,NW,21.9,-,N/A,,Overcast,310,2013-03-18 10:55:00
6:15 AM,-0.4,-4.0,85,29.87,5.0,NW,19.6,-,N/A,,Overcast,310,2013-03-18 11:15:00
6:35 AM,-0.4,-4.0,85,29.88,6.0,NW,17.3,-,N/A,,Haze,310,2013-03-18 11:35:00
6:55 AM,-0.4,-4.0,85,29.88,6.0,NW,19.6,-,N/A,,Haze,310,2013-03-18 11:55:00
7:15 AM,-0.4,-4.0,85,29.88,8.0,NW,18.4,-,N/A,,Overcast,310,2013-03-18 12:15:00
7:35 AM,-0.4,-5.8,78,29.88,9.0,NW,19.6,-,N/A,,Overcast,310,2013-03-18 12:35:00
7:55 AM,-0.4,-5.8,78,29.89,5.0,NW,18.4,-,N/A,,Haze,310,2013-03-18 12:55:00
8:15 AM,-0.4,-5.8,78,29.90,5.0,NW,18.4,-,N/A,,Haze,310,2013-03-18 13:15:00
8:35 AM,-2.2,-5.8,85,29.91,7.0,WNW,19.6,-,N/A,,Overcast,300,2013-03-18 13:35:00
8:55 AM,-0.4,-5.8,78,29.92,5.0,WNW,18.4,-,N/A,,Haze,300,2013-03-18 13:55:00
9:15 AM,-0.4,-5.8,78,29.92,10.0,NW,18.4,-,N/A,,Mostly Cloudy,310,2013-03-18 14:15:00
9:35 AM,-0.4,-5.8,78,29.93,9.0,NW,17.3,-,N/A,,Mostly Cloudy,310,2013-03-18 14:35:00
9:55 AM,-0.4,-5.8,78,29.93,10.0,NW,18.4,-,N/A,,Mostly Cloudy,310,2013-03-18 14:55:00
10:35 AM,-0.4,-4.0,85,29.93,9.0,NW,19.6,-,N/A,,Mostly Cloudy,310,2013-03-18 15:35:00
10:55 AM,-0.4,-4.0,85,29.94,10.0,NW,18.4,-,N/A,,Partly Cloudy,310,2013-03-18 15:55:00
11:15 AM,1.4,-2.2,85,29.95,9.0,WNW,18.4,-,N/A,,Clear,300,2013-03-18 16:15:00
11:35 AM,1.4,-2.2,85,29.95,10.0,NW,19.6,-,N/A,,Clear,310,2013-03-18 16:35:00
11:55 AM,1.4,-2.2,85,29.95,10.0,NW,16.1,-,N/A,,Clear,310,2013-03-18 16:55:00
12:15 PM,3.2,-2.2,78,29.95,10.0,NW,16.1,-,N/A,,Clear,310,2013-03-18 17:15:00
12:35 PM,3.2,-0.4,85,29.95,10.0,WNW,17.3,-,N/A,,Clear,300,2013-03-18 17:35:00
12:55 PM,5.0,-0.4,78,29.94,10.0,WNW,17.3,-,N/A,,Clear,300,2013-03-18 17:55:00
1:15 PM,5.0,-0.4,78,29.94,10.0,WNW,15.0,-,N/A,,Clear,290,2013-03-18 18:15:00
1:35 PM,5.0,-0.4,78,29.95,10.0,West,15.0,-,N/A,,Clear,280,2013-03-18 18:35:00
1:55 PM,6.8,-0.4,72,29.95,10.0,WNW,11.5,-,N/A,,Clear,290,2013-03-18 18:55:00
2:15 PM,6.8,-0.4,72,29.94,10.0,West,12.7,-,N/A,,Clear,280,2013-03-18 19:15:00
2:35 PM,6.8,1.4,79,29.94,10.0,West,11.5,-,N/A,,Clear,280,2013-03-18 19:35:00
2:55 PM,6.8,1.4,79,29.94,10.0,West,13.8,-,N/A,,Clear,280,2013-03-18 19:55:00
3:15 PM,8.6,1.4,73,29.94,10.0,West,12.7,-,N/A,,Clear,280,2013-03-18 20:15:00
3:35 PM,8.6,1.4,73,29.93,10.0,WNW,12.7,-,N/A,,Clear,290,2013-03-18 20:35:00
3:55 PM,8.6,3.2,79,29.93,10.0,West,9.2,-,N/A,,Clear,280,2013-03-18 20:55:00
4:15 PM,8.6,3.2,79,29.92,10.0,WNW,5.8,-,N/A,,Clear,290,2013-03-18 21:15:00
4:35 PM,8.6,1.4,73,29.92,10.0,West,4.6,-,N/A,,Clear,260,2013-03-18 21:35:00
4:55 PM,8.6,1.4,73,29.92,10.0,West,4.6,-,N/A,,Scattered Clouds,260,2013-03-18 21:55:00
5:15 PM,10.4,1.4,67,29.91,10.0,West,4.6,-,N/A,,Scattered Clouds,280,2013-03-18 22:15:00
5:35 PM,10.4,3.2,73,29.91,10.0,Calm,Calm,-,N/A,,Clear,0,2013-03-18 22:35:00
5:55 PM,10.4,3.2,73,29.91,10.0,WSW,3.5,-,N/A,,Clear,250,2013-03-18 22:55:00
6:15 PM,8.6,1.4,73,29.91,10.0,WSW,5.8,-,N/A,,Clear,240,2013-03-18 23:15:00
6:35 PM,8.6,3.2,79,29.91,10.0,WSW,6.9,-,N/A,,Clear,250,2013-03-18 23:35:00
6:55 PM,6.8,1.4,79,29.91,10.0,WSW,6.9,-,N/A,,Clear,240,2013-03-18 23:55:00
7:15 PM,6.8,-0.4,72,29.92,10.0,SW,5.8,-,N/A,,Clear,220,2013-03-19 00:15:00
7:35 PM,5.0,-0.4,78,29.93,10.0,SW,6.9,-,N/A,,Clear,230,2013-03-19 00:35:00
7:55 PM,1.4,-2.2,85,29.93,10.0,SSW,4.6,-,N/A,,Clear,200,2013-03-19 00:55:00
8:15 PM,-0.4,-2.2,92,29.94,10.0,SSW,4.6,-,N/A,,Clear,210,2013-03-19 01:15:00
8:35 PM,-0.4,-2.2,92,29.93,10.0,South,4.6,-,N/A,,Clear,190,2013-03-19 01:35:00
8:55 PM,-2.2,-7.6,78,29.93,10.0,South,3.5,-,N/A,,Partly Cloudy,170,2013-03-19 01:55:00
9:15 PM,-0.4,-4.0,85,29.93,10.0,Calm,Calm,-,N/A,,Clear,0,2013-03-19 02:15:00
9:35 PM,-2.2,-7.6,78,29.93,10.0,Calm,Calm,-,N/A,,Clear,0,2013-03-19 02:35:00
9:55 PM,-4.0,-7.6,85,29.94,10.0,Calm,Calm,-,N/A,,Mostly Cloudy,0,2013-03-19 02:55:00
10:15 PM,-2.2,-7.6,78,29.95,10.0,Calm,Calm,-,N/A,,Mostly Cloudy,0,2013-03-19 03:15:00
10:55 PM,-2.2,-7.6,78,29.95,10.0,Calm,Calm,-,N/A,,Overcast,0,2013-03-19 03:55:00
11:15 PM,-0.4,-4.0,85,29.95,10.0,SW,3.5,-,N/A,,Overcast,220,2013-03-19 04:15:00
11:35 PM,-0.4,-4.0,85,29.95,10.0,South,5.8,-,N/A,,Overcast,190,2013-03-19 04:35:00
11:55 PM,1.4,-2.2,85,29.95,10.0,Calm,Calm,-,N/A,,Overcast,0,2013-03-19 04:55:00